Middletown, OH

8:55 PM EDT on March 23, 2017 (GMT -0400)
Hook Field Municipal

Weather History for KMWO - February, 2013

Change the Weather History Date:

Tuesday, February 26, 2013

  Actual Average (KFFO) Record (KFFO)
Temperature  
Mean Temperature 41 °F -  
Max Temperature 47 °F 42 °F 60 °F (1998)
Min Temperature 35 °F 25 °F 6 °F (2015)
Degree Days  
Heating Degree Days 24    
Moisture  
Dew Point 38 °F    
Average Humidity 91    
Maximum Humidity 100    
Minimum Humidity 68    
Precipitation  
Precipitation 0.00 in - - ()
Sea Level Pressure  
Sea Level Pressure 29.60 in    
Wind  
Wind Speed 10 mph (East)    
Max Wind Speed 15 mph    
Max Gust Speed 25 mph    
Visibility 8 miles    
Events Snow    
Averages and records for this station are not official NWS values.
T = Trace of Precipitation, MM = Missing Value Source: NWS Daily Summary

Daily Weather History Graph

Daily Weather History Graph

Search for Another Location

Airport or City:

Trip Planner

Search our weather history database for the weather conditions in past years. The results will help you decide how hot, cold, wet, or windy it might be!

Date:

Astronomy

Feb. 26, 2013 Rise Set
Actual Time 7:14 AM EST 6:26 PM EST
Civil Twilight 6:47 AM EST 6:53 PM EST
Nautical Twilight 6:16 AM EST 7:25 PM EST
Astronomical Twilight 5:45 AM EST 7:56 PM EST
Moon 7:42 PM EST (2/26) 7:17 AM EST (2/26)
Length of Visible Light 12h 06m
Length of Day
11h 12m
Full, 99% of the Moon is Illuminated
Feb 26
Full
Mar 4
Last Quarter
Mar 11
New
Mar 19
First Quarter
Mar 27
Full

Hourly Weather History & Observations

Time (EST) Temp. Windchill Dew Point Humidity Pressure Visibility Wind Dir Wind Speed Gust Speed Precip Events Conditions
12:15 AM 37.6 °F 30.5 °F 29.3 °F 72% 29.93 in 10.0 mi ENE 10.4 mph - N/A   Clear
12:35 AM 37.6 °F 32.3 °F 28.8 °F 70% 29.93 in 10.0 mi ENE 6.9 mph - N/A   Clear
12:55 AM 35.8 °F 28.3 °F 27.5 °F 72% 29.92 in 10.0 mi ENE 10.4 mph - N/A   Clear
1:15 AM 36.7 °F 30.5 °F 28.0 °F 71% 29.91 in 10.0 mi ENE 8.1 mph - N/A   Clear
1:35 AM 37.6 °F 31.0 °F 28.8 °F 70% 29.89 in 10.0 mi ENE 9.2 mph - N/A   Clear
1:55 AM 37.6 °F 30.5 °F 28.4 °F 69% 29.87 in 10.0 mi ENE 10.4 mph 16.1 mph N/A   Clear
2:15 AM 37.6 °F 29.1 °F 28.2 °F 69% 29.85 in 10.0 mi ENE 13.8 mph - N/A   Clear
2:35 AM 37.6 °F 30.5 °F 28.4 °F 69% 29.83 in 10.0 mi ENE 10.4 mph - N/A   Clear
2:55 AM 37.6 °F 30.0 °F 28.0 °F 68% 29.83 in 10.0 mi ENE 11.5 mph - N/A   Clear
3:15 AM 37.6 °F 31.0 °F 28.4 °F 69% 29.81 in 10.0 mi ENE 9.2 mph - N/A   Scattered Clouds
3:35 AM 37.6 °F 30.5 °F 28.2 °F 69% 29.81 in 10.0 mi ENE 10.4 mph - N/A   Overcast
3:55 AM 37.6 °F 30.5 °F 28.2 °F 69% 29.79 in 10.0 mi ENE 10.4 mph - N/A   Scattered Clouds
4:15 AM 37.0 °F 28.5 °F 28.4 °F 71% 29.78 in 10.0 mi ENE 13.8 mph 19.6 mph N/A   Clear
4:35 AM 37.6 °F 29.1 °F 28.8 °F 70% 29.75 in 10.0 mi NE 13.8 mph - N/A   Scattered Clouds
4:55 AM 37.6 °F 30.0 °F 29.3 °F 72% 29.76 in 10.0 mi ENE 11.5 mph - N/A   Mostly Cloudy
5:15 AM 37.6 °F 29.6 °F 29.3 °F 72% 29.75 in 10.0 mi ENE 12.7 mph 18.4 mph N/A   Overcast
5:35 AM 37.6 °F 29.6 °F 29.3 °F 72% 29.72 in 10.0 mi ENE 12.7 mph - N/A   Overcast
5:55 AM 37.6 °F 30.5 °F 29.3 °F 72% 29.74 in 10.0 mi ENE 10.4 mph - N/A   Overcast
6:15 AM 35.1 °F 29.3 °F 30.7 °F 84% 29.74 in 5.0 mi ENE 6.9 mph - N/A Snow Light Snow
6:35 AM 35.1 °F 27.4 °F 32.0 °F 89% 29.72 in 10.0 mi ENE 10.4 mph - N/A Snow Light Snow
6:55 AM 35.1 °F 26.9 °F 32.4 °F 90% 29.71 in 5.0 mi ENE 11.5 mph - N/A Snow Light Snow
7:15 AM 35.1 °F 27.9 °F 33.1 °F 92% 29.70 in 7.0 mi East 9.2 mph - N/A Snow Light Snow
7:35 AM 35.1 °F 26.9 °F 33.3 °F 93% 29.68 in 5.0 mi ENE 11.5 mph - N/A Snow Light Snow
7:55 AM 35.1 °F 25.9 °F 34.0 °F 96% 29.66 in 7.0 mi ENE 13.8 mph - N/A   Overcast
8:15 AM 35.1 °F 25.9 °F 33.8 °F 95% 29.66 in 10.0 mi ENE 13.8 mph - N/A   Overcast
8:35 AM 35.1 °F 27.4 °F 33.4 °F 94% 29.66 in 10.0 mi ENE 10.4 mph - N/A   Overcast
8:55 AM 35.6 °F 27.1 °F 34.2 °F 94% 29.66 in 10.0 mi East 12.7 mph 18.4 mph N/A   Overcast
9:15 AM 37.4 °F 30.8 °F 36.0 °F 95% 29.64 in 7.0 mi ENE 9.2 mph 18.4 mph N/A Snow Light Snow
9:35 AM 37.6 °F 29.1 °F 36.5 °F 96% 29.62 in 7.0 mi ENE 13.8 mph 18.4 mph N/A Snow Light Snow
9:55 AM 37.6 °F 29.6 °F 36.5 °F 96% 29.61 in 10.0 mi ENE 12.7 mph - N/A Snow Light Snow
10:15 AM 37.6 °F 28.8 °F 36.9 °F 97% 29.58 in 4.0 mi ENE 15.0 mph - N/A Snow Light Snow
10:35 AM 37.6 °F 30.0 °F 36.9 °F 97% 29.58 in 10.0 mi ENE 11.5 mph 21.9 mph N/A   Overcast
10:55 AM 38.7 °F 31.8 °F 38.1 °F 98% 29.56 in 5.0 mi East 10.4 mph 18.4 mph N/A   Overcast
11:15 AM 38.3 °F 30.9 °F 37.8 °F 98% 29.54 in 2.0 mi East 11.5 mph 19.6 mph N/A   Unknown
11:35 AM 39.7 °F 32.7 °F 39.4 °F 99% 29.53 in 10.0 mi ENE 11.5 mph 17.3 mph N/A   Overcast
11:55 AM 40.1 °F 33.2 °F 39.4 °F 97% 29.53 in 10.0 mi East 11.5 mph 25.3 mph N/A   Overcast
12:15 PM 40.1 °F 34.1 °F 39.7 °F 99% 29.53 in 10.0 mi East 9.2 mph - N/A   Overcast
12:35 PM 40.1 °F 35.3 °F 40.1 °F 100% 29.52 in 2.5 mi ENE 6.9 mph - N/A   Unknown
12:55 PM 40.3 °F 34.9 °F 40.3 °F 100% 29.51 in 2.5 mi ENE 8.1 mph - N/A   Unknown
1:15 PM 40.6 °F 34.8 °F 40.6 °F 100% 29.48 in 5.0 mi NE 9.2 mph - N/A   Overcast
1:35 PM 41.4 °F 35.2 °F 41.4 °F 100% 29.47 in 7.0 mi ENE 10.4 mph - N/A   Overcast
1:55 PM 42.1 °F 36.1 °F 42.1 °F 100% 29.46 in 5.0 mi ENE 10.4 mph - N/A   Unknown
2:15 PM 42.8 °F 37.5 °F 42.8 °F 100% 29.44 in 4.0 mi ENE 9.2 mph - N/A   Unknown
2:35 PM 45.1 °F 40.3 °F 45.1 °F 100% 29.43 in 10.0 mi East 9.2 mph - N/A   Overcast
2:55 PM 45.1 °F 40.8 °F 45.1 °F 100% 29.42 in 4.0 mi East 8.1 mph - N/A   Unknown
3:15 PM 47.7 °F - 47.7 °F 100% 29.42 in 4.0 mi East 6.9 mph - N/A   Overcast
3:35 PM 47.7 °F - 47.7 °F 100% 29.41 in 4.0 mi East 8.1 mph - N/A   Unknown
3:55 PM 47.7 °F - 47.7 °F 100% 29.40 in 2.5 mi East 6.9 mph - N/A   Unknown
4:15 PM 47.7 °F - 47.7 °F 100% 29.40 in 4.0 mi East 9.2 mph - N/A   Overcast
4:35 PM 47.7 °F - 47.7 °F 100% 29.40 in 7.0 mi East 8.1 mph - N/A   Overcast
4:55 PM 47.7 °F - 47.7 °F 100% 29.40 in 5.0 mi East 8.1 mph - N/A   Unknown
5:15 PM 47.7 °F - 47.7 °F 100% 29.41 in 3.0 mi WNW 3.5 mph - N/A   Unknown
5:35 PM 47.7 °F - 47.7 °F 100% 29.41 in 4.0 mi ESE 4.6 mph - N/A   Unknown
5:55 PM 47.7 °F - 47.7 °F 100% 29.41 in 2.0 mi ESE 4.6 mph - N/A   Unknown
6:15 PM 47.7 °F - 47.7 °F 100% 29.42 in 2.5 mi ESE 3.5 mph - N/A   Unknown
6:35 PM 47.7 °F - 47.7 °F 100% 29.44 in 3.0 mi West 9.2 mph - N/A   Unknown
6:55 PM 47.7 °F - 46.9 °F 97% 29.46 in 7.0 mi West 8.1 mph - N/A   Unknown
7:15 PM 47.7 °F - 46.8 °F 97% 29.46 in 7.0 mi WSW 8.1 mph - N/A   Unknown
7:35 PM 45.1 °F 41.4 °F 44.8 °F 99% 29.47 in 10.0 mi SW 6.9 mph - N/A   Overcast
7:55 PM 45.1 °F 42.0 °F 45.0 °F 99% 29.47 in 7.0 mi WSW 5.8 mph - N/A   Unknown
8:15 PM 45.1 °F 40.8 °F 45.1 °F 100% 29.48 in 10.0 mi SW 8.1 mph - N/A   Overcast
8:35 PM 45.1 °F 40.8 °F 45.1 °F 100% 29.48 in 10.0 mi SW 8.1 mph - N/A   Overcast
8:55 PM 45.1 °F 39.9 °F 45.1 °F 100% 29.48 in 10.0 mi SW 10.4 mph - N/A   Overcast
9:15 PM 45.1 °F 40.3 °F 45.1 °F 100% 29.49 in 10.0 mi SW 9.2 mph - N/A   Overcast
9:35 PM 45.1 °F 39.5 °F 45.1 °F 100% 29.50 in 10.0 mi SW 11.5 mph - N/A   Overcast
9:55 PM 45.1 °F 39.9 °F 45.1 °F 100% 29.50 in 10.0 mi SW 10.4 mph - N/A   Overcast
10:15 PM 43.0 °F 36.0 °F 43.0 °F 100% 29.50 in 10.0 mi SW 13.8 mph 18.4 mph N/A   Overcast
10:35 PM 42.8 °F 36.2 °F 42.8 °F 100% 29.50 in 7.0 mi SW 12.7 mph - N/A   Overcast
10:55 PM 42.8 °F 37.0 °F 42.8 °F 100% 29.51 in 10.0 mi SSW 10.4 mph - N/A   Overcast
11:15 PM 42.8 °F 37.0 °F 42.8 °F 100% 29.51 in 7.0 mi SW 10.4 mph - N/A   Overcast
11:55 PM 42.8 °F 36.6 °F 42.8 °F 100% 29.51 in 4.0 mi SW 11.5 mph - N/A   Unknown